Location: Byangola
(0.5298°N, 29.7430°E)
Time: 07:17:33
(UTC+00:00)

Daily predictions for brighter satellites

Satellite Brightness Start Highest point End
(mag) Time Altitude Azimuth Time Altitude Azimuth Time Altitude Azimuth
USA 276 3.9 16:04:06 10° NNE 16:06:00 15° NE 16:07:55 10° E
Cosmos 1315 Rocket 3.0 16:03:34 10° S 16:07:21 48° E 16:11:07 10° NNE
Centaur D-1AR AC-40 3.8 16:02:58 10° NW 16:10:16 21° N 16:13:43 10° NE
NOSS 3-1 (A) 4.4 16:02:39 10° NNW 16:11:27 71° ENE 16:20:21 10° SSE
Cosmos 1980 Rocket 2.2 16:08:08 10° S 16:13:48 71° ESE 16:19:24 10° NNE
ARIANE 5 R/B 0.9 16:11:12 10° W 16:14:01 59° S 16:15:54 10° E
S3M 3.9 16:11:04 10° S 16:17:10 70° E 16:23:13 10° N
Cosmos 1953 Rocket 3.6 16:12:55 10° N 16:17:19 62° E 16:21:45 10° SSE
CORIOLIS 4.4 16:12:34 10° S 16:17:54 76° WSW 16:23:13 10° NNW
FengYun 1-2 T 4.3 16:13:12 10° SSE 16:18:51 77° ENE 16:24:29 10° N
Milstar 3 Cent rocket 4.0 16:01:57 10° WNW 16:20:24 86° NNE 16:28:28 10° ESE
Okean O Rocket 3.7 16:27:59 10° SSW 16:31:54 31° WSW 16:35:47 10° NW
USA 281 3.2 16:26:56 10° SSE 16:33:30 89° E 16:40:04 10° NNW
YAOGAN 1 3.7 16:30:30 10° SE 16:33:52 22° ENE 16:37:13 10° NNE
Cosmos-2242 3.7 16:34:00 10° SSE 16:37:44 30° E 16:40:34 15° NE
CZ-2C R/B 4.0 16:34:15 10° SE 16:39:19 32° ENE 16:44:24 10° NNE
Feng Yun 1-1 Rocket 4.3 16:33:37 10° SSE 16:39:22 86° ENE 16:45:14 10° NNW
Cosmos 2297 Rocket 3.7 16:35:56 10° NE 16:38:07 16° NE 16:38:07 16° NE
Sylda 4400 3.5 16:37:28 10° WSW 16:39:42 36° S 16:41:17 20° ESE
Cosmos 1812 Rocket 3.6 16:36:03 10° S 16:40:31 85° W 16:44:56 10° N
MOS 1 Rocket 3.7 16:37:12 10° N 16:42:16 77° WNW 16:47:38 10° SSW
Cosmos 1340 2.7 16:38:40 10° N 16:42:20 52° E 16:46:01 10° SSE
In-Cosmos 22 Rocket 4.3 16:36:59 10° N 16:42:20 53° E 16:47:50 10° SSE
Cosmos 1455 3.4 16:40:19 10° SSW 16:43:52 43° W 16:47:25 10° NNW
ATLAS 3B CENTAUR R/B 4.0 16:40:04 10° S 16:44:27 23° SE 16:48:59 16° E
Cosmos 2322 Rocket 3.4 16:41:17 10° SSE 16:45:31 22° ESE 16:46:20 21° E
BLOCK DM-SL R/B 2.2 16:45:55 10° W 16:50:57 67° S 16:51:57 35° ESE
Cosmos 1939 Rocket 3.4 16:47:56 10° S 16:51:59 63° W 16:55:57 10° NNW
Ariane H10 2.1 16:50:25 10° W 16:52:49 85° S 16:53:39 42° E
Timation 2 Rocket 4.3 16:48:34 10° N 16:55:08 50° ENE 17:01:44 10° SSE
CZ-4 R/B 4.5 16:52:17 10° S 16:56:27 82° W 17:00:34 10° NNW
Helios 1A Rocket 2.8 16:54:55 10° SSE 16:59:05 84° ENE 17:03:12 10° N
Ariane H10+ 3.1 16:58:50 10° W 17:01:32 89° S 17:04:16 31° E
ARIANE 3 DEB 3.7 16:54:11 10° WSW 17:02:49 68° S 17:04:29 38° ESE
Okean-O 2.5 17:00:56 10° SSE 17:05:23 87° E 17:09:48 10° N
ATLAS 5 CENTAUR R/B 1.4 17:05:59 10° WNW 17:06:55 27° WNW 17:06:55 27° WNW
Ariane 3 Deb 4.4 16:20:08 10° W 17:08:28 85° N 17:12:07 35° ENE
Cosmos 2219 3.5 17:04:22 10° N 17:09:45 42° ENE 17:15:05 10° SE
H-2A R/B 2.3 17:07:37 10° SSE 17:18:13 - N 17:12:30 45° E
CZ-4 R/B 1.7 17:11:59 10° S 17:16:00 64° W 17:19:54 10° NNW
ARIANE 5 R/B 4.2 17:12:18 10° WSW 17:16:35 62° S 17:23:47 26° ESE
Meteosat 1 Rocket2 4.1 17:13:59 10° SSW 17:17:02 29° SSE 17:17:02 29° SSE
CSL-04 Rocket 3.7 17:15:27 10° SSE 17:20:52 55° ENE 17:26:16 10° N
SL-16 R/B 2.0 17:15:34 10° S 17:21:12 73° ESE 17:22:38 51° NE
Cosmos 192 4.2 17:18:07 10° SSW 17:23:02 85° WNW 17:24:18 50° N
CZ-2C R/B 1.6 17:18:52 10° WSW 17:23:03 59° NW 17:23:03 59° NW
GPS 2-17 Rocket1 4.0 17:27:55 10° SW 17:31:19 36° S 17:31:19 36° S
CZ-2C R/B 3.1 17:29:32 17° N 17:33:30 58° WNW 17:38:39 10° SSW
Ariane H10+ 2.9 17:37:57 10° WSW 17:41:50 49° SW 17:41:50 49° SW
Cosmos 2058 4.3 17:41:34 30° WNW 17:42:44 37° W 17:46:34 10° SSW
Cosmos 2360 Rocket 3.8 17:41:02 10° S 17:43:09 22° SSE 17:43:09 22° SSE
DELTA 2 R/B (1) 3.8 17:41:08 10° SW 17:45:44 61° SSW 17:45:44 61° SSW
Ariane H10+ 3.3 17:41:51 10° W 17:47:30 84° S 17:51:37 48° ESE
ARIANE 5 DEB (SYLDA) 3.4 17:35:41 10° W 17:47:45 79° NNW 17:47:45 79° NNW
Ariane H10-3 3.2 17:41:44 10° W 17:59:07 78° WSW 17:59:07 78° WSW
CZ-3B R/B 4.4 18:00:04 10° SW 18:14:32 36° WNW 18:16:00 32° NW
Cosmos 2297 Rocket 4.3 18:18:19 10° NW 18:29:05 - S 18:20:18 20° WNW
Cosmos 2322 Rocket 4.1 18:24:36 10° SW 18:28:14 25° W 18:28:14 25° W
Centaur D-1A AC-31 3.4 17:48:15 10° WNW 18:39:43 63° SW 18:40:22 62° SSW
ATLAS 3B CENTAUR R/B 4.3 18:56:35 10° WSW 19:00:38 42° WSW 19:00:38 42° WSW
